STARLINK-32405, 61636

Orbit data source: Space-Track

STARLINK-32405, 61636 is a payload satellite owned by SpaceX/Seattle (US) in LEO that was launched on Wed, 23 Oct 2024 UTC via an FALCON 9 launch vehicle from the Air Force Eastern Test Range (AFETR). Payload-class satellites include a variety of spacecraft equipped with specific instruments for various scientific and technological missions. These include communications satellites like Starlink; space stations such as the ISS; scientific satellites like the Hubble; Earth observation satellites from companies like Planet Labs, Umbra, and HawkEye 360; GPS; miniature CubeSats for education and research; and military/defense satellites.

Loading next visibility...
Identifier
61636, 2024-191R
Orbit
LEO
Country
Flag of USUS
Related business
Manufacturer
SpaceX/Seattle
Mission
Operational Commercial Communications
Bus & Motor
STARLINK V2M, Unknown motor
Mass
730 kg wet, ~700 kg dry
Launch date (UTC)
2024-10-23 (2 years ago)
Launch vehicle
FALCON 9
Launch site
Air Force Eastern Test Range (AFETR)
Object type
Payload
Rocket body
Debris
Shape & HBR
Box + 2 Pan, 17.7 m
Radar Cross Section
33.884 m², Large (>1 m²)

Expand to show TLE details & history
Last TLE update: 22 hours ago

TLE from 22 hours ago
0 STARLINK-32405
1 61636U 24191R   26122.31710766 -.00000886  00000-0 -22700-4 0  9992
2 61636  43.0010 215.4890 0001063 240.6418 119.4327 15.27571264 85691
Epoch: 2026-05-02T07:36Z
TLE epoch observation values (Epoch: 2026-05-02T07:36:38.101Z)
Latitude
-0.00007°
Longitude
-118.90658°
Altitude
483.209 km
Speed
7.625 km/s
True Right ascension
14h 21m 57s
True Declination
0° 00' 00"
Sunlit
Object was in full shadow at epoch
Visualization orbit readout
Latitude
Unknown
Longitude
Unknown
Altitude
Unknown
Speed
Unknown
Apparent Right ascension
Unknown
Apparent Declination
Unknown
Sunlit
N/A
Visualization observer readout
Local Sidereal Time
13:25:34
Azimuth
Unknown
Elevation
Unknown
Doppler factor
Unknown
Orbital elements
Apogee altitude
485.75 km
Perigee altitude
484.291 km
Semi-major axis
6,863.157 km
Eccentricity
0.00011
Inclination
43.001°
RAAN
215.489°
Arg. of periapsis
240.6418°
True anomaly
119.44331°
Mean anomaly
119.4327°
Eccentric anomaly
119.438°
Mean motion
3.81731 °/min
Orbital period
94.31 mins
BSTAR
-0.0000227
Loading maneuver chart data...
Computing Atmospheric mass density...
Loading historical data...
Loading historical data...
Loading historical data...
Loading historical data...
Loading historical data...
Loading historical data...
Loading historical data...

Documentation

Showing up to 5 results
|